Hourly Data Report for July 18, 2021

MANIWAKI AIRPORT
QUEBEC
Current Station Operator: ECCC - MSC

46°16'29.000" N
75°59'31.000" W
199.70 m
7034482
71721
WMJ

Download Data

Hourly Data (July 2021)
Hourly Data Report for July 18, 2021
TIME
LST
Temp Definition
°C
Dew Point Definition
°C
Rel Hum Definition
%
Precip. Amount Definition
mm

Wind Dir Definition
10's deg

Wind Spd Definition
km/h
Visibility Definition
km
Stn Press Definition
kPa
Hmdx Definition


Wind Chill Definition


Weather Definition


00:00 16.9 16.6 98 0.0 2 1   99.47     LegendNANA
01:00 16.3 16.1 98 0.0 0 1   99.44     LegendNANA
02:00 15.9 15.6 98 0.0 18 1   99.42     LegendNANA
03:00 16.4 16.3 99 0.0 3 4   99.40     LegendNANA
04:00 16.5 16.4 100 0.0 1 3   99.42     LegendNANA
05:00 16.7 16.6 100 0.0 36 4   99.46     LegendNANA
06:00 16.5 16.5 99 0.0 36 3   99.49     LegendNANA
07:00 18.3 17.4 94 0.0 36 7   99.51     LegendNANA
08:00 20.2 18.4 89 0.0 36 10   99.54 27   LegendNANA
09:00 22.2 18.7 81 0.0 34 6   99.51 29   LegendNANA
10:00 24.4 19.0 72 0.0 4 3   99.49 31   LegendNANA
11:00 26.1 19.3 66 0.0 24 3   99.47 33   LegendNANA
12:00 26.9 18.5 60 0.0 27 3   99.44 33   LegendNANA
13:00 27.5 18.0 56 0.0 24 5   99.40 34   LegendNANA
14:00 28.4 16.8 49 0.0 31 6   99.36 34   LegendNANA
15:00 28.6 15.5 45 0.0 36 5   99.32 33   LegendNANA
16:00 28.2 17.9 53 0.0 32 3   99.30 34   LegendNANA
17:00 27.7 18.5 57 0.0 11 6   99.30 34   LegendNANA
18:00 25.3 19.7 71 0.0 16 5   99.31 33   LegendNANA
19:00 23.1 20.5 85 0.0   0   99.31 31   LegendNANA
20:00 22.9 19.3 80 0.0 21 4   99.34 30   LegendNANA
21:00 21.9 18.0 78 0.0 20 6   99.35 28   LegendNANA
22:00 20.7 19.8 94 0.0 30 5   99.33 28   LegendNANA
23:00 18.9 18.2 96 0.0 34 4   99.33     LegendNANA

Notes on Data Quality.

Legend

  • E = Estimated
  • M = Missing
  • NA = Not Available*
  • [empty] = Indicates an unobserved value
Date modified: